Погода в Дера-Гази-Хане

Пакистан     30°03′09″N   70°38′03″E
темп.,
°C
ветер,
м/с
пор.,
м/с
влажн.,
%
обл.,
%
осадки,
мм/ч
давл.,
гПа
погр.,
м
24 мая, вт
вт2423:00+28ссв67400 0.0 999625
02:00+27св48470 0.0 999323
05:00+25св510490 0.0 1002410
08:00+29ссв67420 0.0 1004671
11:00+35ссв55280 0.0 10041558
14:00+39ссв43180 0.0 10022914
17:00+40всв32140 0.0 10013199
20:00+36всв34170 0.0 100256
25 мая, ср
ср2523:00+33св37210 0.0 1003162
02:00+30с33260 0.0 100350
05:00+28с11290 0.0 100411
08:00+33ю34230 0.0 1006613
11:00+39ю44170 0.0 10042013
14:00+43ю45120 0.0 10012847
17:00+43ю55100 0.0 9982799
20:00+39ю34110 0.0 99951
26 мая, чт
чт2623:00+36ю33120 0.0 99925
02:00+34юв33150 0.0 99827
05:00+31вюв22180 0.0 99915
08:00+36ссв12130 0.0 1000325
11:00+42зсз0190 0.0 9991358
14:00+45зюз2270 0.0 9962362
17:00+47ююв2350 0.0 9932410
20:00+43ююз6111221 0.0 994310
27 мая, пт
пт2723:00+40ююз715154 0.0 994496
02:00+36ююз915293 0.0 993396
05:00+32ююз610450 0.0 994247
08:00+37ю55300 0.0 995350
11:00+46ю35110 0.0 9942063
14:00+50ю51040 0.0 9916873
17:00+50зсз101010 0.0 9886718
20:00+44сз91720 0.0 990521
28 мая, сб
сб2823:00+42зсз112030 0.0 990746
02:00+39зсз101930 0.0 989602
05:00+38зсз81650 0.0 988384
08:00+41с6850 0.0 990752
11:00+46ссз7680 0.0 9902854
14:00+48ссз7680 0.0 9884444
17:00+47с46729 0.0 9865276
20:00+43ссв3365 0.0 98821